Waarnemingen

Advertentie
Mijn weer
Vlissingen, Nederland (6310): temperatuur & dauwpunt: 22.06.2017 05:00:00 - 28.06.2017 05:00:00 (CEST)Vlissingen, Nederland (6310): temperatuur 5cm: 22.06.2017 05:00:00 - 28.06.2017 05:00:00 (CEST)Vlissingen, Nederland (6310): windsnelheid & windstoten: 22.06.2017 05:00:00 - 28.06.2017 05:00:00 (CEST)Vlissingen, Nederland (6310): windrichting: 22.06.2017 05:00:00 - 28.06.2017 05:00:00 (CEST)Vlissingen, Nederland (6310): luchtdruk: 22.06.2017 05:00:00 - 28.06.2017 05:00:00 (CEST)Vlissingen, Nederland (6310): zicht: 22.06.2017 05:00:00 - 28.06.2017 05:00:00 (CEST)Vlissingen, Nederland (6310): neerslag: 22.06.2017 05:00:00 - 28.06.2017 05:00:00 (CEST)
Datum & Tijd tt [°C] td [°C] tt 5cm [°C] ff [km/u] ff [kn] fx [km/u] fx [kn] dd ppp [hPa] vv [km] rr [mm]
28.06.2017 05:00:00 18,8 17,5 18,7 21 11 - - OZO 996,4 5 0,0
28.06.2017 04:00:00 18,2 16,6 18,2 21 11 25 14 O 997,0 6 0,0
28.06.2017 03:00:00 18,1 16,0 18,0 18 10 25 14 ONO 997,6 9 0,0
28.06.2017 02:00:00 18,1 15,3 17,9 18 10 29 16 ONO 998,7 10 0,0
28.06.2017 01:00:00 18,0 14,9 17,7 22 12 29 16 ONO 999,7 10 0,0
28.06.2017 00:00:00 18,3 15,0 17,7 18 10 32 18 ONO 1000,6 10 0,0
27.06.2017 23:00:00 18,7 14,7 18,5 24 13 36 19 NO 1001,4 10 0,0
27.06.2017 22:00:00 18,8 15,5 18,6 22 12 36 19 NO 1002,1 10 0,0
27.06.2017 21:00:00 18,8 15,5 18,7 21 11 29 16 ONO 1002,6 10 0,0
27.06.2017 20:00:00 19,4 15,3 19,5 18 10 29 16 ONO 1003,1 10 0,0
27.06.2017 19:00:00 19,5 15,3 19,9 15 8 22 12 ONO 1003,8 10 0,0
27.06.2017 18:00:00 19,9 15,3 20,6 29 16 32 18 O 1004,6 10 0,0
27.06.2017 17:00:00 20,3 14,8 22,0 28 15 32 18 O 1005,5 10 0,0
27.06.2017 16:00:00 22,0 14,0 25,5 28 15 32 18 O 1006,0 10 0,0
27.06.2017 15:00:00 23,5 14,0 27,4 21 11 25 14 O 1006,6 10 0,0
27.06.2017 14:00:00 21,6 13,6 23,5 16 9 22 12 O 1007,3 10 0,0
27.06.2017 13:00:00 19,9 12,4 20,9 24 13 29 16 O 1007,8 10 0,0
27.06.2017 12:00:00 19,4 12,7 21,0 24 13 29 16 O 1008,2 10 0,0
27.06.2017 11:00:00 18,1 11,9 19,5 24 13 29 16 O 1008,8 10 0,0
27.06.2017 10:00:00 17,7 11,9 19,1 16 9 25 14 O 1009,4 10 0,0
27.06.2017 09:00:00 16,7 11,2 19,4 15 8 22 12 ONO 1010,0 10 0,0
27.06.2017 08:00:00 15,0 10,9 15,0 15 8 25 14 NO 1010,1 10 0,0
27.06.2017 07:00:00 15,1 11,0 14,9 15 8 25 14 ONO 1010,3 10 0,0
27.06.2017 06:00:00 14,7 11,0 14,0 18 10 25 14 ONO 1010,9 10 0,0
27.06.2017 05:00:00 14,9 11,3 14,2 15 8 22 12 ONO 1011,3 10 0,0
27.06.2017 04:00:00 14,2 11,0 13,5 15 8 18 10 NO 1012,1 10 0,0
27.06.2017 03:00:00 14,5 11,3 13,8 15 8 22 12 NO 1012,6 10 0,0
27.06.2017 02:00:00 15,0 11,2 14,4 16 9 25 14 NNO 1012,7 10 0,0
27.06.2017 01:00:00 15,1 11,2 14,5 15 8 22 12 NO 1013,4 10 0,0
27.06.2017 00:00:00 15,7 10,4 15,1 15 8 25 14 NNO 1013,6 10 0,0
26.06.2017 23:00:00 16,0 10,4 15,3 16 9 25 14 NNO 1013,8 10 0,0
26.06.2017 22:00:00 16,3 9,5 15,6 18 10 29 16 NNO 1013,6 10 0,0
26.06.2017 21:00:00 17,0 9,2 17,1 22 12 32 18 N 1013,3 10 0,0
26.06.2017 20:00:00 17,9 8,8 18,8 18 10 29 16 NNO 1013,6 10 0,0
26.06.2017 19:00:00 18,3 9,6 20,5 21 11 32 18 NNO 1014,0 10 0,0
26.06.2017 18:00:00 18,6 8,4 21,9 18 10 29 16 NNO 1014,1 10 0,0
26.06.2017 17:00:00 19,8 9,3 22,4 18 10 32 18 N 1014,4 10 0,0
26.06.2017 16:00:00 19,9 7,9 23,6 18 10 29 16 NNW 1014,7 10 0,0
26.06.2017 15:00:00 19,7 8,2 24,3 13 7 25 14 - 1014,9 10 0,0
26.06.2017 14:00:00 20,0 9,1 24,5 11 6 22 12 W 1015,0 34 0,0
26.06.2017 13:00:00 19,7 7,3 24,3 11 6 22 12 - 1014,9 10 0,0
26.06.2017 12:00:00 18,9 8,9 22,9 13 7 25 14 NW 1014,6 10 0,0
26.06.2017 11:00:00 18,2 8,6 22,2 15 8 25 14 NNW 1014,6 10 0,0
26.06.2017 10:00:00 17,2 9,1 19,4 13 7 22 12 NW 1014,8 10 0,0
26.06.2017 09:00:00 17,0 9,5 18,6 13 7 22 12 NW 1014,5 10 0,0
26.06.2017 08:00:00 16,6 10,0 17,5 15 8 22 12 NNW 1014,1 10 0,0
26.06.2017 07:00:00 16,0 11,0 15,9 13 7 18 10 NNW 1013,7 10 0,0
26.06.2017 06:00:00 16,1 11,4 15,8 15 8 22 12 NNW 1013,1 10 0,0
26.06.2017 05:00:00 16,3 12,8 15,8 11 6 18 10 NNW 1013,0 10 0,0
26.06.2017 04:00:00 17,2 13,9 16,9 16 9 25 14 NW 1012,8 10 0,0
26.06.2017 03:00:00 17,7 14,3 17,5 18 10 36 19 NW 1012,7 10 0,0
26.06.2017 02:00:00 18,0 16,1 17,6 29 16 40 21 WZW 1012,3 10 0,0
26.06.2017 01:00:00 17,4 15,4 17,4 28 15 40 21 WZW 1012,3 10 0,0
26.06.2017 00:00:00 17,3 14,9 17,0 35 19 40 21 ZW 1012,2 10 0,0
25.06.2017 23:00:00 17,6 14,8 17,3 31 17 40 21 ZW 1012,3 10 0,0
25.06.2017 22:00:00 18,0 14,4 17,6 37 20 47 25 WZW 1011,9 10 0,0
25.06.2017 21:00:00 18,4 15,4 18,4 41 22 50 27 WZW 1011,5 10 0,0
25.06.2017 20:00:00 19,5 14,1 19,8 41 22 50 27 WZW 1011,6 10 0,0
25.06.2017 19:00:00 20,1 15,1 20,6 29 16 43 23 WZW 1012,0 10 0,0
25.06.2017 18:00:00 19,2 15,0 20,1 35 19 47 25 W 1012,3 10 0,0
25.06.2017 17:00:00 19,9 13,7 21,7 39 21 50 27 W 1012,4 10 0,0
25.06.2017 16:00:00 19,3 13,6 22,0 42 23 50 27 W 1012,7 10 0,0
25.06.2017 15:00:00 19,4 13,8 22,5 44 24 54 29 W 1012,7 10 0,0
25.06.2017 14:00:00 19,0 14,2 20,9 37 20 47 25 W 1012,8 10 0,0
25.06.2017 13:00:00 18,2 14,2 18,8 37 20 50 27 W 1012,8 10 0,0
25.06.2017 12:00:00 18,2 14,4 19,3 42 23 50 27 W 1012,5 10 0,0
25.06.2017 11:00:00 18,6 14,0 20,9 39 21 47 25 WZW 1012,0 10 0,0
25.06.2017 10:00:00 17,8 13,5 18,3 34 18 43 23 W 1011,8 10 0,0
25.06.2017 09:00:00 17,8 14,1 18,0 35 19 47 25 W 1011,5 10 0,0
25.06.2017 08:00:00 17,6 14,2 17,3 35 19 50 27 W 1011,1 10 0,0
25.06.2017 07:00:00 17,3 15,9 16,5 31 17 47 25 ZW 1011,1 9 0,3
25.06.2017 06:00:00 17,5 15,6 17,3 35 19 43 23 ZW 1010,9 10 0,0
25.06.2017 05:00:00 17,7 15,9 17,5 37 20 50 27 WZW 1010,9 10 0,0
25.06.2017 04:00:00 18,0 15,9 17,7 50 27 65 35 WZW 1010,9 9 0,0
25.06.2017 03:00:00 18,1 16,5 17,9 48 26 61 33 WZW 1011,2 9 0,0
25.06.2017 02:00:00 18,0 16,3 17,8 35 19 47 25 ZW 1011,6 10 0,0
25.06.2017 01:00:00 17,9 16,1 17,7 39 21 50 27 ZW 1012,1 10 0,0
25.06.2017 00:00:00 17,8 16,1 17,7 35 19 43 23 ZW 1012,6 10 0,0
24.06.2017 23:00:00 18,1 16,1 17,7 35 19 47 25 ZW 1012,7 10 0,0
24.06.2017 22:00:00 18,2 16,1 17,9 37 20 47 25 ZW 1012,6 10 0,0
24.06.2017 21:00:00 18,4 16,1 18,0 41 22 50 27 ZW 1012,9 10 0,0
24.06.2017 20:00:00 18,3 16,4 18,1 39 21 47 25 ZW 1013,2 10 0,0
24.06.2017 19:00:00 18,0 16,6 17,9 35 19 47 25 ZW 1013,3 10 0,0
24.06.2017 18:00:00 17,6 16,8 17,6 37 20 47 25 ZW 1014,1 7 0,5
24.06.2017 17:00:00 17,5 16,8 17,5 35 19 43 23 ZW 1014,6 3,4 0,8
24.06.2017 16:00:00 17,7 16,6 17,9 34 18 43 23 ZW 1015,0 7 0,0
24.06.2017 15:00:00 18,0 15,7 17,9 35 19 47 25 ZW 1015,1 10 0,0
24.06.2017 14:00:00 18,2 15,8 18,1 35 19 47 25 ZW 1015,2 10 0,0
24.06.2017 13:00:00 17,3 16,1 17,2 37 20 47 25 ZW 1015,2 3,9 0,0
24.06.2017 12:00:00 17,4 16,6 17,8 34 18 47 25 ZW 1015,1 7 0,1
24.06.2017 11:00:00 16,5 16,0 16,6 34 18 40 21 ZW 1015,2 2,7 0,8
24.06.2017 10:00:00 16,6 16,2 16,6 31 17 40 21 ZW 1015,1 3,1 0,4
24.06.2017 09:00:00 16,3 15,7 16,2 34 18 40 21 ZW 1015,0 2,2 0,5
24.06.2017 08:00:00 17,0 14,5 17,0 34 18 40 21 ZW 1014,7 10 0,0
24.06.2017 07:00:00 16,6 14,3 16,4 35 19 43 23 ZW 1014,6 10 0,0
24.06.2017 06:00:00 16,1 14,2 15,5 37 20 47 25 ZW 1014,6 10 0,0
24.06.2017 05:00:00 16,0 14,1 15,7 35 19 43 23 ZW 1015,0 10 0,0
24.06.2017 04:00:00 15,8 14,1 15,4 37 20 43 23 ZW 1015,4 10 0,0
24.06.2017 03:00:00 16,1 14,1 15,6 35 19 47 25 ZW 1015,8 10 0,0
24.06.2017 02:00:00 16,2 13,8 15,7 35 19 47 25 ZW 1016,1 10 0,0
24.06.2017 01:00:00 16,6 13,4 16,2 39 21 47 25 ZW 1016,4 10 0,0
24.06.2017 00:00:00 16,9 13,2 16,5 35 19 43 23 ZW 1016,7 10 0,0
23.06.2017 23:00:00 17,6 13,2 17,0 39 21 50 27 ZW 1016,7 10 0,0
23.06.2017 22:00:00 18,1 13,3 17,7 37 20 54 29 ZW 1016,8 10 0,0
23.06.2017 21:00:00 19,0 13,5 18,9 41 22 50 27 ZW 1016,5 10 0,0
23.06.2017 20:00:00 19,6 15,0 19,8 44 24 54 29 WZW 1016,2 10 0,0
23.06.2017 19:00:00 20,2 14,6 20,2 41 22 54 29 W 1016,0 10 0,0
23.06.2017 18:00:00 20,2 13,7 22,2 42 23 54 29 W 1016,2 10 0,0
23.06.2017 17:00:00 20,0 14,0 22,0 46 25 58 31 W 1016,1 10 0,0
23.06.2017 16:00:00 19,6 13,7 22,6 44 24 54 29 W 1016,1 10 0,0
23.06.2017 15:00:00 20,0 14,3 22,9 44 24 54 29 W 1016,4 10 0,0
23.06.2017 14:00:00 20,0 14,5 22,6 41 22 54 29 W 1016,3 10 0,0
23.06.2017 13:00:00 19,1 14,0 21,7 42 23 50 27 W 1016,4 10 0,0
23.06.2017 12:00:00 18,6 14,2 21,3 39 21 50 27 W 1016,3 10 0,0
23.06.2017 11:00:00 19,1 15,5 20,2 34 18 43 23 W 1015,9 10 0,0
23.06.2017 10:00:00 19,6 14,6 21,1 24 13 32 18 W 1015,7 10 0,0
23.06.2017 09:00:00 19,4 15,3 20,3 24 13 32 18 W 1015,0 10 0,0
23.06.2017 08:00:00 17,7 16,2 18,0 24 13 29 16 ZW 1014,8 10 0,0
23.06.2017 07:00:00 16,9 15,7 16,7 22 12 29 16 WZW 1014,4 9 0,0
23.06.2017 06:00:00 17,4 16,1 17,1 21 11 25 14 WZW 1014,2 10 0,0
23.06.2017 05:00:00 18,8 17,2 18,4 24 13 29 16 WZW 1013,7 10 0,0
23.06.2017 04:00:00 18,3 16,9 17,5 26 14 29 16 WZW 1013,7 10 0,0
23.06.2017 03:00:00 18,0 16,5 17,6 26 14 32 18 ZW 1013,9 10 0,0
23.06.2017 02:00:00 18,4 16,4 18,1 26 14 32 18 ZW 1013,8 10 0,0
23.06.2017 01:00:00 18,8 16,7 18,6 22 12 25 14 WZW 1013,5 10 0,0
23.06.2017 00:00:00 18,8 16,7 18,4 28 15 36 19 WZW 1013,5 10 0,0
22.06.2017 23:00:00 19,2 16,9 18,8 28 15 32 18 W 1013,2 10 0,0
22.06.2017 22:00:00 19,2 16,6 19,0 37 20 47 25 W 1012,8 10 0,0
22.06.2017 21:00:00 19,5 16,5 19,5 44 24 54 29 W 1012,0 10 0,0
22.06.2017 20:00:00 20,0 16,5 20,3 46 25 61 33 W 1011,8 10 0,0
22.06.2017 19:00:00 20,4 15,8 20,8 46 25 68 37 W 1010,7 10 0,0
22.06.2017 18:00:00 21,2 16,0 22,5 50 27 61 33 WZW 1010,6 10 0,0
22.06.2017 17:00:00 20,6 17,3 21,8 42 23 50 27 WZW 1010,4 10 0,1
22.06.2017 16:00:00 22,9 17,7 22,2 31 17 43 23 W 1010,3 10 0,0
22.06.2017 15:00:00 20,7 17,3 22,6 35 19 50 27 W 1010,3 10 0,0
22.06.2017 14:00:00 23,8 17,4 26,1 28 15 40 21 W 1010,5 10 0,0
22.06.2017 13:00:00 22,7 17,5 25,9 31 17 40 21 W 1010,3 10 0,0
22.06.2017 12:00:00 25,7 16,1 29,1 28 15 36 19 W 1010,5 10 0,0
22.06.2017 11:00:00 25,8 18,4 27,7 24 13 32 18 W 1010,7 10 0,0
22.06.2017 10:00:00 23,7 18,5 25,6 24 13 32 18 W 1010,7 10 0,0
22.06.2017 09:00:00 23,2 19,6 24,4 24 13 29 16 W 1010,9 10 0,0
22.06.2017 08:00:00 22,8 18,1 23,4 15 8 22 12 WZW 1011,0 10 0,0
22.06.2017 07:00:00 21,7 18,7 21,6 11 6 14 8 WZW 1010,8 10 0,0
22.06.2017 06:00:00 22,8 16,4 21,3 13 7 18 10 W 1010,9 10 0,0
22.06.2017 05:00:00 22,0 17,7 20,9 16 9 25 14 ZZW 1010,9 10 0,0

tt = temperatuur
td = dauwpunt
tt 5cm = temperatuur 5cm
ff = windsnelheid
fx = windstoten
dd = windrichting
ppp = luchtdruk
vv = zicht
rr = neerslag

Weerstations in de omgeving